Location: Nashville
(36.1660°N, 86.7840°W)
Time: 19:28:22
(UTC-05:00)

Tiros 1 - Pass Details

Date: 05 February 2022
Orbit: 629 x 663 km, 48.4° (Epoch: 27 May)

Event Time Altitude Azimuth Distance (km) Brightness Sun altitude
Rises 18:07:24 0° 246° (WSW) 2,964 12.5 -10.4°
Reaches altitude 10° 18:09:47 10° 251° (WSW) 2,060 11.3 -10.9°
Maximum altitude 18:14:26 54° 329° (NNW) 800 7.7 -11.8°
Enters shadow 18:18:38 13° 45° (NE) 1,888 9.1 -12.6°
